Date String (YYYY-MM-DD hh:mm:ss) UTC,Instrument flags,Ambient pressure (hPa),Sample flow (lpm),Bypass flow (lpm),Sample temperature (°C),Ambient temperature (°C),ASC tube jacket temperature (°C),LED temperature (°C),Box temperature (°C),Sample RH (%),Span deviation,Mass concentration (μg/m³),Mass concentration (μg/m³),Mass concentration (μg/m³)
DateTimeUTC,F1_M11,P_M11,Q1_M11,Q2_M11,T1_M11,T2_M11,T3_M11,T4_M11,T5_M11,U1_M11,ZSPAN_M11,X0_M11,X2_M11,X1_M11
2021-10-14 22:00:00,,0824.2,5.00,0.00,25.4,24.6,00.0,34.4,27.3,19.9,0000.0,0009.85,0005.48,0004.94
2021-10-14 22:01:00,,0824.2,5.00,0.00,25.4,24.6,00.0,34.5,27.3,19.7,0000.0,0010.22,0005.44,0004.94
2021-10-14 22:02:00,,0824.3,5.00,0.00,25.4,24.6,00.0,34.5,27.3,19.8,0000.0,0010.76,0005.40,0004.91
2021-10-14 22:03:00,,0824.2,5.00,0.00,25.4,24.7,00.0,34.5,27.3,19.9,0000.0,0010.66,0005.35,0004.88
2021-10-14 22:04:00,,0824.2,5.00,0.00,25.4,24.7,00.0,34.5,27.3,19.9,0000.0,0010.63,0005.33,0004.86
2021-10-14 22:05:00,,0824.2,5.00,0.00,25.5,24.7,00.0,34.5,27.3,20.3,0000.0,0009.98,0005.29,0004.81
2021-10-14 22:06:00,,0824.2,5.00,0.00,25.5,24.7,00.0,34.5,27.4,21.2,0000.0,0009.75,0005.21,0004.77
2021-10-14 22:07:00,,0824.2,5.01,0.00,25.5,24.7,00.0,34.5,27.4,20.4,0000.0,0009.60,0005.14,0004.74
2021-10-14 22:08:00,,0824.2,4.99,0.00,25.5,24.7,00.0,34.5,27.4,19.9,0000.0,0009.53,0005.11,0004.72
2021-10-14 22:09:00,,0824.3,4.99,0.00,25.5,24.7,00.0,34.5,27.4,20.2,0000.0,0009.54,0005.11,0004.71
2021-10-14 22:10:00,,0824.2,5.00,0.00,25.5,24.7,00.0,34.5,27.4,20.0,0000.0,0009.48,0005.06,0004.68
2021-10-14 22:11:00,,0824.3,5.00,0.00,25.5,24.7,00.0,34.5,27.4,19.3,0000.0,0009.30,0005.00,0004.64
2021-10-14 22:12:00,,0824.2,4.99,0.00,25.5,24.7,00.0,34.6,27.4,19.0,0000.0,0008.86,0004.96,0004.61
2021-10-14 22:13:00,,0824.3,5.00,0.00,25.6,24.8,00.0,34.6,27.4,19.4,0000.0,0008.05,0004.94,0004.60
2021-10-14 22:14:00,,0824.2,5.00,0.00,25.6,24.8,00.0,34.6,27.4,19.8,0000.0,0008.14,0004.95,0004.59
2021-10-14 22:15:00,,0824.2,5.00,0.00,25.6,24.8,00.0,34.6,27.5,19.5,0000.0,0008.21,0004.98,0004.60
2021-10-14 22:16:00,,0824.3,5.00,0.00,25.6,24.8,00.0,34.6,27.5,19.6,0000.0,0008.20,0004.96,0004.61
2021-10-14 22:17:00,,0824.3,5.00,0.00,25.6,24.8,00.0,34.6,27.5,19.5,0000.0,0008.21,0004.95,0004.62
2021-10-14 22:18:00,,0824.3,4.99,0.00,25.6,24.8,00.0,34.6,27.5,19.4,0000.0,0008.21,0004.96,0004.62
2021-10-14 22:19:00,,0824.4,5.00,0.00,25.6,24.9,00.0,34.6,27.5,19.8,0000.0,0008.26,0004.97,0004.62
2021-10-14 22:20:00,,0824.3,5.01,0.00,25.6,24.9,00.0,34.6,27.5,19.6,0000.0,0008.26,0004.96,0004.60
2021-10-14 22:21:00,,0824.3,5.02,0.00,25.6,24.9,00.0,34.6,27.5,19.3,0000.0,0008.12,0004.93,0004.59
2021-10-14 22:22:00,,0824.3,4.99,0.00,25.7,24.9,00.0,34.7,27.6,19.4,0000.0,0007.78,0004.92,0004.59
2021-10-14 22:23:00,,0824.4,4.99,0.00,25.7,24.9,00.0,34.7,27.6,19.4,0000.0,0007.63,0004.91,0004.60
2021-10-14 22:24:00,,0824.4,5.00,0.00,25.7,24.9,00.0,34.7,27.5,19.5,0000.0,0007.64,0004.92,0004.60
2021-10-14 22:25:00,,0824.4,5.00,0.00,25.7,24.9,00.0,34.7,27.6,19.1,0000.0,0007.61,0004.91,0004.60
2021-10-14 22:26:00,,0824.5,5.00,0.00,25.7,24.9,00.0,34.7,27.6,18.7,0000.0,0007.52,0004.89,0004.59
2021-10-14 22:27:00,,0824.5,5.00,0.00,25.7,24.9,00.0,34.7,27.6,18.7,0000.0,0007.50,0004.87,0004.58
2021-10-14 22:28:00,,0824.5,5.01,0.00,25.7,24.9,00.0,34.7,27.6,19.0,0000.0,0007.46,0004.87,0004.56
2021-10-14 22:29:00,,0824.4,4.99,0.00,25.7,24.9,00.0,34.7,27.6,19.3,0000.0,0007.45,0004.88,0004.55
2021-10-14 22:30:00,,0824.5,4.99,0.00,25.7,24.9,00.0,34.7,27.6,19.2,0000.0,0007.40,0004.85,0004.54
2021-10-14 22:31:00,,0824.5,5.01,0.00,25.7,24.9,00.0,34.7,27.6,19.2,0000.0,0007.31,0004.83,0004.53
2021-10-14 22:32:00,,0824.4,5.00,0.00,25.7,24.9,00.0,34.7,27.6,19.1,0000.0,0007.36,0004.84,0004.54
2021-10-14 22:33:00,,0824.5,4.99,0.00,25.7,24.9,00.0,34.8,27.6,19.0,0000.0,0007.49,0004.88,0004.56
2021-10-14 22:34:00,,0824.5,4.99,0.00,25.8,24.9,00.0,34.8,27.6,19.0,0000.0,0007.61,0004.92,0004.59
2021-10-14 22:35:00,,0824.4,5.00,0.00,25.8,24.9,00.0,34.8,27.6,19.1,0000.0,0007.67,0004.95,0004.62
2021-10-14 22:36:00,,0824.4,5.01,0.00,25.7,24.9,00.0,34.8,27.6,18.9,0000.0,0007.61,0004.96,0004.65
2021-10-14 22:37:00,,0824.4,5.00,0.00,25.8,24.9,00.0,34.8,27.6,18.9,0000.0,0007.65,0004.98,0004.68
2021-10-14 22:38:00,,0824.4,4.99,0.00,25.7,24.9,00.0,34.8,27.6,18.9,0000.0,0007.70,0004.99,0004.68
2021-10-14 22:39:00,,0824.4,5.00,0.00,25.8,24.9,00.0,34.8,27.6,18.9,0000.0,0007.64,0004.99,0004.70
2021-10-14 22:40:00,,0824.4,5.01,0.00,25.8,25.0,00.0,34.8,27.6,18.9,0000.0,0007.63,0005.00,0004.72
2021-10-14 22:41:00,,0824.7,4.98,0.00,25.8,25.0,00.0,34.8,27.6,19.0,0000.0,0007.69,0005.03,0004.74
2021-10-14 22:42:00,,0824.5,5.02,0.00,25.8,25.0,00.0,34.8,27.7,18.9,0000.0,0007.83,0005.09,0004.76
2021-10-14 22:43:00,,0824.6,5.00,0.00,25.8,25.0,00.0,34.8,27.7,18.9,0000.0,0008.13,0005.12,0004.77
2021-10-14 22:44:00,,0824.4,4.99,0.00,25.8,25.0,00.0,34.8,27.7,18.8,0000.0,0008.37,0005.12,0004.78
2021-10-14 22:45:00,,0824.4,5.01,0.00,25.8,25.0,00.0,34.8,27.7,18.7,0000.0,0008.32,0005.12,0004.78
2021-10-14 22:46:00,,0824.4,5.00,0.00,25.8,25.0,00.0,34.8,27.7,18.7,0000.0,0008.26,0005.11,0004.78
2021-10-14 22:47:00,,0824.4,5.00,0.00,25.8,25.0,00.0,34.9,27.7,18.7,0000.0,0008.29,0005.11,0004.76
2021-10-14 22:48:00,,0824.6,5.00,0.00,25.8,25.0,00.0,34.9,27.7,18.9,0000.0,0008.35,0005.14,0004.77
2021-10-14 22:49:00,,0824.4,5.01,0.00,25.8,25.0,00.0,34.9,27.7,18.9,0000.0,0008.33,0005.16,0004.78
2021-10-14 22:50:00,,0824.7,5.00,0.00,25.9,25.0,00.0,34.9,27.7,19.0,0000.0,0008.37,0005.17,0004.78
2021-10-14 22:51:00,,0824.6,4.99,0.00,25.9,25.0,00.0,34.9,27.7,19.3,0000.0,0008.39,0005.17,0004.79
2021-10-14 22:52:00,,0824.9,5.01,0.00,25.9,25.0,00.0,34.9,27.7,19.2,0000.0,0008.44,0005.19,0004.78
2021-10-14 22:53:00,,0824.7,5.01,0.00,25.9,25.1,00.0,34.9,27.7,19.1,0000.0,0008.38,0005.17,0004.79
2021-10-14 22:54:00,,0824.7,4.99,0.00,25.9,25.1,00.0,34.9,27.7,19.1,0000.0,0008.13,0005.15,0004.80
2021-10-14 22:55:00,,0824.5,5.01,0.00,25.9,25.1,00.0,34.9,27.7,19.2,0000.0,0007.75,0005.14,0004.80
2021-10-14 22:56:00,,0824.6,4.99,0.00,25.9,25.1,00.0,34.9,27.8,19.2,0000.0,0007.74,0005.12,0004.78
2021-10-14 22:57:00,,0824.6,5.00,0.00,25.9,25.1,00.0,34.9,27.8,19.1,0000.0,0007.69,0005.09,0004.77
2021-10-14 22:58:00,,0824.6,5.00,0.00,25.9,25.1,00.0,34.9,27.8,18.8,0000.0,0007.66,0005.09,0004.79
2021-10-14 22:59:00,,0824.6,5.01,0.00,25.9,25.1,00.0,34.9,27.8,18.7,0000.0,0007.69,0005.10,0004.80
